New River MCAS, NC

4:07 AM EST on December 12, 2017 (GMT -0500)
New River Marine Corps Air Station

Weather History for KNCA - November, 2012

Change the Weather History Date:

Tuesday, November 6, 2012

  Actual Average Record
Temperature  
Mean Temperature 42 °F -  
Max Temperature 46 °F 66 °F 80 °F (1997)
Min Temperature 39 °F 44 °F 36 °F (2001)
Degree Days  
Heating Degree Days 22    
Moisture  
Dew Point 38 °F    
Average Humidity 80    
Maximum Humidity 87    
Minimum Humidity 71    
Precipitation  
Precipitation 0.43 in - - ()
Sea Level Pressure  
Sea Level Pressure 29.99 in    
Wind  
Wind Speed 9 mph (North)    
Max Wind Speed 16 mph    
Max Gust Speed 21 mph    
Visibility 9 miles    
Events Rain    
Averages and records for this station are not official NWS values.
T = Trace of Precipitation, MM = Missing Value Source: NWS Daily Summary

Daily Weather History Graph

Daily Weather History Graph

Search for Another Location

Airport or City:

Trip Planner

Search our weather history database for the weather conditions in past years. The results will help you decide how hot, cold, wet, or windy it might be!

Date:

Astronomy

Nov. 06, 2012 Rise Set
Actual Time 6:35 AM EST 5:10 PM EST
Civil Twilight 6:09 AM EST 5:37 PM EST
Nautical Twilight 5:39 AM EST 6:07 PM EST
Astronomical Twilight 5:09 AM EST 6:36 PM EST
Moon 11:44 PM EST (11/6) 12:28 PM EST (11/6)
Length of Visible Light 11h 28m
Length of Day
10h 35m
Waning Gibbous, 53% of the Moon is Illuminated
Nov 6
Waning Gibbous
Nov 6
Last Quarter
Nov 13
New
Nov 20
First Quarter
Nov 28
Full

Hourly Weather History & Observations

Time (EST) Temp. Windchill Dew Point Humidity Pressure Visibility Wind Dir Wind Speed Gust Speed Precip Events Conditions
12:56 AM 44.1 °F 40.1 °F 37.0 °F 76% 30.12 in 10.0 mi NNE 6.9 mph - N/A   Clear
1:56 AM 42.1 °F 38.4 °F 36.0 °F 79% 30.10 in 10.0 mi NNE 5.8 mph - N/A   Clear
2:56 AM 39.9 °F 35.1 °F 35.1 °F 83% 30.09 in 10.0 mi North 6.9 mph - N/A   Clear
3:56 AM 39.9 °F 35.1 °F 34.0 °F 79% 30.07 in 10.0 mi NNE 6.9 mph - N/A   Clear
4:56 AM 39.9 °F 34.5 °F 34.0 °F 79% 30.08 in 10.0 mi North 8.1 mph - N/A   Clear
5:56 AM 39.9 °F 37.8 °F 34.0 °F 79% 30.06 in 10.0 mi North 3.5 mph - N/A   Partly Cloudy
6:56 AM 41.0 °F 38.0 °F 35.1 °F 79% 30.07 in 10.0 mi NNE 4.6 mph - N/A   Mostly Cloudy
7:56 AM 43.0 °F 37.2 °F 35.1 °F 74% 30.10 in 10.0 mi North 10.4 mph - N/A   Overcast
8:56 AM 44.1 °F 38.6 °F 35.1 °F 71% 30.07 in 10.0 mi North 10.4 mph - N/A   Overcast
9:56 AM 45.0 °F 40.1 °F 36.0 °F 71% 30.07 in 10.0 mi North 9.2 mph - N/A   Overcast
10:56 AM 46.0 °F 41.0 °F 37.0 °F 71% 30.05 in 10.0 mi North 10.4 mph - N/A   Overcast
11:56 AM 46.0 °F 41.0 °F 37.9 °F 73% 30.02 in 10.0 mi North 10.4 mph - 0.00 in Rain Light Rain
12:56 PM 45.0 °F 40.6 °F 39.0 °F 80% 30.01 in 5.0 mi North 8.1 mph - 0.03 in Rain Light Rain
1:56 PM 45.0 °F 38.9 °F 39.9 °F 82% 29.96 in 5.0 mi NNE 12.7 mph 18.4 mph 0.10 in Rain Light Rain
2:56 PM 45.0 °F 41.8 °F 39.9 °F 82% 29.98 in 5.0 mi North 5.8 mph - 0.02 in Rain Light Rain
3:56 PM 45.0 °F 39.3 °F 41.0 °F 86% 29.94 in 4.0 mi NNE 11.5 mph - 0.08 in Rain Light Rain
4:56 PM 46.0 °F 41.9 °F 42.1 °F 86% 29.92 in 5.0 mi NNE 8.1 mph - 0.11 in Rain Light Rain
5:22 PM 46.4 °F 41.5 °F 42.8 °F 87% 29.93 in 5.0 mi NW 10.4 mph - 0.04 in Rain Light Rain
5:56 PM 45.0 °F 37.9 °F 41.0 °F 86% 29.93 in 6.0 mi NNW 16.1 mph - 0.08 in Rain Light Rain
7:03 PM 44.6 °F 38.1 °F 41.0 °F 87% 29.92 in 10.0 mi North 13.8 mph 20.7 mph 0.00 in Rain Light Rain
7:51 PM 44.6 °F 38.8 °F 39.2 °F 81% 29.92 in 10.0 mi NNW 11.5 mph - 0.01 in   Overcast
7:56 PM 45.0 °F 39.3 °F 39.9 °F 82% 29.93 in 10.0 mi NNW 11.5 mph - 0.01 in   Overcast
8:12 PM 44.6 °F 39.7 °F 39.2 °F 81% 29.91 in 10.0 mi North 9.2 mph - N/A   Overcast
8:56 PM 45.0 °F 38.9 °F 39.9 °F 82% 29.92 in 10.0 mi NNW 12.7 mph - N/A   Overcast
9:56 PM 45.0 °F 39.3 °F 39.9 °F 82% 29.91 in 10.0 mi NNW 11.5 mph - N/A   Overcast
10:56 PM 44.1 °F 38.1 °F 37.9 °F 79% 29.89 in 10.0 mi NNW 11.5 mph - N/A   Overcast
11:13 PM 44.6 °F 39.2 °F 37.4 °F 76% 29.87 in 10.0 mi North 10.4 mph - N/A   Overcast
11:56 PM 44.1 °F 37.7 °F 37.9 °F 79% 29.87 in 10.0 mi North 12.7 mph - N/A   Overcast